GW1106 Weather Reports


Display with metric or nautical units.
time (UTC)temp
F
wind
direction
speed
MPH
gust
MPH
rain 1hr
in
rain 24hr
in
rain mn
in
humidity
%
barometer
mb
20260503184703 66 297 1.0 4.0 0.00 0.00 0.00 37 1019.5
20260503184159 65 238 2.0 8.0 0.00 0.00 0.00 34 1019.6
20260503183656 64 227 1.0 4.0 0.00 0.00 0.00 37 1019.6
20260503183153 64 263 7.0 11.0 0.00 0.00 0.00 36 1019.6
20260503182651 64 273 4.0 8.0 0.00 0.00 0.00 36 1019.6
20260503182149 65 214 4.0 9.0 0.00 0.00 0.00 40 1019.7
20260503181646 64 237 6.0 11.0 0.00 0.00 0.00 35 1019.9
20260503181143 64 316 5.0 10.0 0.00 0.00 0.00 34 1019.8
20260503180640 64 286 6.0 9.0 0.00 0.00 0.00 37 1019.9
20260503180138 63 258 5.0 10.0 0.00 0.00 0.00 35 1020.0
20260503175634 63 358 1.0 3.0 0.00 0.00 0.00 37 1020.1
20260503175131 63 195 4.0 10.0 0.00 0.00 0.00 36 1020.2
20260503174623 63 223 7.0 11.0 0.00 0.00 0.00 38 1020.2
20260503174120 63 237 6.0 11.0 0.00 0.00 0.00 37 1020.2
20260503173615 64 285 7.0 8.0 0.00 0.00 0.00 38 1020.3
20260503173111 64 346 2.0 3.0 0.00 0.00 0.00 36 1020.2
20260503172608 64 298 2.0 7.0 0.00 0.00 0.00 38 1020.5
20260503172106 62 259 5.0 8.0 0.00 0.00 0.00 39 1020.5
20260503171602 62 244 7.0 11.0 0.00 0.00 0.00 40 1020.6
20260503171059 62 274 7.0 11.0 0.00 0.00 0.00 37 1020.8
20260503170555 61 266 7.0 9.0 0.00 0.00 0.00 39 1020.7
20260503150943 59 358 1.0 4.0 0.00 0.00 0.00 47 1021.8
20260503150439 59 319 4.0 7.0 0.00 0.00 0.00 50 1021.9
20260503131331 55 84 1.0 3.0 0.00 0.00 0.00 56 1021.5
20260503130829 55 153 1.0 1.0 0.00 0.00 0.00 58 1021.9
20260503130326 53 136 0.0 3.0 0.00 0.00 0.00 60 1021.6
20260503110720 36 146 0.0 0.0 0.00 0.00 0.00 98 1020.8
20260503110217 35 145 0.0 0.0 0.00 0.00 0.00 98 1020.8
20260503100143 34 135 0.0 0.0 0.00 0.00 0.00 97 1019.7
20260503081538 37 121 0.0 0.0 0.00 0.00 0.00 94 1018.7
20260503081036 37 135 0.0 0.0 0.00 0.00 0.00 96 1018.8
20260503080532 37 148 0.0 0.0 0.00 0.00 0.00 96 1018.7
20260503072505 36 140 0.0 0.0 0.00 0.00 0.00 94 1018.4
20260503072003 37 141 0.0 0.0 0.00 0.00 0.00 94 1018.5
20260503071500 36 130 0.0 0.0 0.00 0.00 0.00 94 1018.0
20260503070955 36 135 0.0 0.0 0.00 0.00 0.00 94 1017.9
20260503070453 37 136 0.0 0.0 0.00 0.00 0.00 94 1018.0
20260503054906 38 111 0.0 0.0 0.00 0.00 0.00 90 1018.0
20260503054402 39 132 0.0 0.0 0.00 0.00 0.00 89 1018.0
20260503053900 39 101 0.0 0.0 0.00 0.00 0.00 88 1018.0
20260503053358 39 139 0.0 0.0 0.00 0.00 0.00 88 1018.1
20260503052853 40 145 0.0 1.0 0.00 0.00 0.00 88 1018.0
20260503052351 40 135 0.0 1.0 0.00 0.00 0.00 87 1018.0
20260503051847 39 115 0.0 1.0 0.00 0.00 0.00 89 1018.2
20260503051343 39 159 0.0 0.0 0.00 0.00 0.00 90 1017.9
20260503050840 39 157 0.0 0.0 0.00 0.00 0.00 90 1017.9
20260503050336 39 162 0.0 0.0 0.00 0.00 0.00 89 1017.8
20260503045834 40 166 0.0 0.0 0.00 0.00 0.00 88 1017.9
20260503045332 40 156 0.0 0.0 0.00 0.00 0.00 87 1017.9
20260503044828 40 131 0.0 0.0 0.00 0.00 0.00 86 1017.7
20260503044325 41 130 0.0 0.0 0.00 0.00 0.00 86 1017.8
20260503043822 40 112 0.0 0.0 0.00 0.00 0.00 87 1017.6
20260503043319 40 138 0.0 0.0 0.00 0.00 0.00 87 1017.7
20260503042815 41 135 0.0 1.0 0.00 0.00 0.00 88 1017.5
20260503042312 41 133 0.0 0.0 0.00 0.00 0.00 85 1017.5
20260503041808 41 128 0.0 0.0 0.00 0.00 0.00 84 1017.5
20260503041306 42 130 0.0 0.0 0.00 0.00 0.00 82 1017.4
20260503040803 42 124 0.0 0.0 0.00 0.00 0.00 81 1017.3
20260503040301 43 109 0.0 1.0 0.00 0.00 0.00 81 1017.4
20260503035757 43 146 0.0 0.0 0.00 0.00 0.00 79 1017.3
20260503035255 44 152 0.0 0.0 0.00 0.00 0.00 78 1017.3
20260503034752 44 136 0.0 2.0 0.00 0.00 0.00 77 1017.3
20260503034249 43 137 0.0 0.0 0.00 0.00 0.00 78 1017.0
20260503033746 44 110 0.0 0.0 0.00 0.00 0.00 78 1017.2
20260503033243 44 144 0.0 0.0 0.00 0.00 0.00 78 1017.3
20260503032742 44 132 0.0 0.0 0.00 0.00 0.00 76 1017.2
20260503032240 45 137 0.0 0.0 0.00 0.00 0.00 74 1017.1
20260503031737 45 142 0.0 0.0 0.00 0.00 0.00 74 1017.2
20260503031235 45 110 1.0 2.0 0.00 0.00 0.00 74 1017.0
20260503030731 46 130 0.0 2.0 0.00 0.00 0.00 71 1017.0
20260503030227 46 138 0.0 0.0 0.00 0.00 0.00 70 1017.1
20260503025724 47 157 0.0 0.0 0.00 0.00 0.00 67 1016.9
20260503025222 48 130 0.0 0.0 0.00 0.00 0.00 66 1017.0
20260503024718 49 147 0.0 0.0 0.00 0.00 0.00 64 1016.8
20260503024216 49 129 1.0 1.0 0.00 0.00 0.00 60 1017.0
20260503023713 49 154 0.0 0.0 0.00 0.00 0.00 63 1017.0
20260503023209 50 138 0.0 0.0 0.00 0.00 0.00 58 1016.8
20260503022705 49 150 0.0 0.0 0.00 0.00 0.00 61 1016.6
20260503022205 50 165 0.0 0.0 0.00 0.00 0.00 61 1016.9
20260503021702 51 141 0.0 0.0 0.00 0.00 0.00 57 1016.6
20260503021159 51 142 0.0 0.0 0.00 0.00 0.00 55 1016.6
20260503020656 53 130 0.0 0.0 0.00 0.00 0.00 52 1016.6
20260503020153 53 131 0.0 1.0 0.00 0.00 0.00 51 1016.5
20260503015650 53 126 0.0 0.0 0.00 0.00 0.00 51 1016.4
20260503015147 53 110 0.0 0.0 0.00 0.00 0.00 50 1016.3
20260503014643 54 127 0.0 0.0 0.00 0.00 0.00 50 1016.3
20260503014141 54 89 0.0 1.0 0.00 0.00 0.00 50 1016.1
20260503013638 55 110 0.0 2.0 0.00 0.00 0.00 49 1016.1
20260503013136 55 96 0.0 0.0 0.00 0.00 0.00 48 1015.8
20260503012633 55 70 0.0 2.0 0.00 0.00 0.00 49 1015.9
20260503012129 55 91 0.0 2.0 0.00 0.00 0.00 47 1015.8
20260503011626 56 103 1.0 1.0 0.00 0.00 0.00 47 1015.8
20260503011123 56 123 0.0 1.0 0.00 0.00 0.00 46 1015.7
20260503010619 57 106 0.0 1.0 0.00 0.00 0.00 45 1015.6
20260503010117 57 127 1.0 4.0 0.00 0.00 0.00 44 1015.5
20260503005614 57 114 0.0 2.0 0.00 0.00 0.00 45 1015.1
20260503005111 58 353 1.0 2.0 0.00 0.00 0.00 44 1015.3
20260503004607 58 129 0.0 0.0 0.00 0.00 0.00 44 1015.1
20260503004106 58 145 0.0 1.0 0.00 0.00 0.00 44 1015.0
20260503003602 58 142 0.0 0.0 0.00 0.00 0.00 43 1015.0
20260503003059 59 129 0.0 1.0 0.00 0.00 0.00 43 1014.9
20260503002556 59 148 0.0 1.0 0.00 0.00 0.00 43 1014.7
20260503002053 59 134 0.0 1.0 0.00 0.00 0.00 42 1014.6
20260503001549 59 62 1.0 3.0 0.00 0.00 0.00 41 1014.6
20260503001046 59 125 0.0 1.0 0.00 0.00 0.00 42 1014.4
20260503000544 60 134 0.0 6.0 0.00 0.00 0.00 42 1014.3
20260503000041 60 112 0.0 1.0 0.00 0.00 0.00 41 1014.2
20260502235537 60 107 1.0 2.0 0.00 0.00 0.00 41 1014.1
20260502235035 60 123 1.0 2.0 0.00 0.00 0.00 41 1014.0
20260502234531 60 97 2.0 3.0 0.00 0.00 0.00 42 1013.8
20260502234029 61 47 2.0 2.0 0.00 0.00 0.00 41 1013.9
20260502233529 60 82 1.0 3.0 0.00 0.00 0.00 40 1013.7
20260502233027 60 114 0.0 3.0 0.00 0.00 0.00 40 1013.7
20260502232522 60 24 2.0 3.0 0.00 0.00 0.00 40 1013.4
20260502232020 60 55 1.0 2.0 0.00 0.00 0.00 42 1013.6
20260502231517 61 9 1.0 2.0 0.00 0.00 0.00 41 1013.4
20260502231015 61 337 5.0 6.0 0.00 0.00 0.00 40 1013.4
20260502230513 61 109 1.0 2.0 0.00 0.00 0.00 41 1013.2
20260502230011 61 123 0.0 1.0 0.00 0.00 0.00 42 1013.3
20260502225511 61 64 1.0 3.0 0.00 0.00 0.00 41 1013.3
20260502225009 61 50 1.0 2.0 0.00 0.00 0.00 42 1013.3
20260502224505 62 116 0.0 0.0 0.00 0.00 0.00 45 1013.5
20260502224002 62 95 1.0 3.0 0.00 0.00 0.00 41 1013.3
20260502223459 62 141 0.0 3.0 0.00 0.00 0.00 44 1013.3
20260502222958 62 33 2.0 3.0 0.00 0.00 0.00 46 1013.3
20260502222455 62 131 0.0 0.0 0.00 0.00 0.00 55 1012.9
20260502221950 63 226 2.0 2.0 0.00 0.00 0.00 56 1013.0
20260502221447 63 146 2.0 3.0 0.00 0.00 0.00 55 1012.8
20260502220944 65 290 3.0 6.0 0.00 0.00 0.00 51 1012.7
20260502220439 64 169 0.0 2.0 0.00 0.00 0.00 51 1012.6
20260502215936 64 321 2.0 3.0 0.00 0.00 0.00 54 1012.7
20260502215434 65 307 5.0 6.0 0.00 0.00 0.00 51 1012.8
20260502214931 64 254 3.0 6.0 0.00 0.00 0.00 50 1012.7
20260502214427 65 227 2.0 3.0 0.00 0.00 0.00 54 1012.8
20260502213925 65 139 0.0 2.0 0.00 0.00 0.00 54 1012.6
20260502213421 66 127 1.0 2.0 0.00 0.00 0.00 51 1012.6
20260502212920 65 157 1.0 4.0 0.00 0.00 0.00 53 1012.5
20260502212419 65 258 6.0 8.0 0.00 0.00 0.00 52 1012.4
20260502211915 64 155 1.0 4.0 0.00 0.00 0.00 53 1012.6
20260502211411 63 242 3.0 8.0 0.00 0.00 0.00 56 1012.6
20260502210908 65 240 5.0 6.0 0.00 0.00 0.00 54 1012.5
20260502210405 64 264 4.0 9.0 0.00 0.00 0.00 55 1012.5
20260502205902 64 217 2.0 6.0 0.00 0.00 0.00 55 1012.6
20260502205358 64 198 4.0 7.0 0.00 0.00 0.00 55 1012.6
20260502204856 63 236 2.0 2.0 0.00 0.00 0.00 57 1012.7
20260502204353 62 245 2.0 2.0 0.00 0.00 0.00 57 1012.7
20260502203850 62 225 2.0 4.0 0.00 0.00 0.00 56 1012.8
20260502203348 62 158 0.0 3.0 0.00 0.00 0.00 56 1012.7
20260502202843 61 222 3.0 6.0 0.00 0.00 0.00 59 1012.7
20260502202341 62 206 3.0 6.0 0.00 0.00 0.00 58 1012.8
20260502201839 63 162 0.0 1.0 0.00 0.00 0.00 54 1012.8
20260502201334 62 159 1.0 3.0 0.00 0.00 0.00 57 1012.7
20260502200831 62 143 0.0 3.0 0.00 0.00 0.00 55 1012.8
20260502200326 62 167 4.0 4.0 0.00 0.00 0.00 55 1012.9
20260502195825 62 162 3.0 6.0 0.00 0.00 0.00 54 1012.8
20260502195321 62 214 4.0 4.0 0.00 0.00 0.00 55 1012.8
20260502194819 62 226 5.0 6.0 0.00 0.00 0.00 55 1013.1
20260502194315 62 220 3.0 3.0 0.00 0.00 0.00 57 1013.1
20260502193812 62 207 4.0 6.0 0.00 0.00 0.00 54 1013.2
20260502193308 63 177 4.0 6.0 0.00 0.00 0.00 58 1013.2
20260502192803 63 4 3.0 4.0 0.00 0.00 0.00 53 1013.4
20260502192304 63 117 0.0 6.0 0.00 0.00 0.00 54 1013.4
20260502191758 64 97 0.0 3.0 0.00 0.00 0.00 54 1013.4
20260502191256 63 223 1.0 3.0 0.00 0.00 0.00 53 1013.5
20260502190753 63 190 0.0 7.0 0.00 0.00 0.00 54 1013.5
20260502190250 64 185 4.0 6.0 0.00 0.00 0.00 56 1013.4
20260502185744 62 183 0.0 2.0 0.00 0.00 0.00 55 1013.7
20260502185241 62 250 3.0 6.0 0.00 0.00 0.00 54 1013.7